Wind_Speed
22 22 20 18 17 18 21 21 21 23 24 27 26 24 23 21 16 15 16 18 21 21 23 24 20 17 16 16 16 17 15 13 13 12 12 13 13 13 14 14 14 14 14 14 15 16 18 20 23 24 25 25 26 27 28 29 30 29 27 27 28 28 27 26 25 26 26 26 28 29 28 28 30 32 33 34 36 40 41 37 32 29 28 29 31 30 28
20 23 23 23 21 19 20 21 21 22 24 26 27 25 26 26 23 22 20 20 20 19 22 25 23 20 17 14 15 15 16 17 16 14 14 14 13 12 12 13 15 15 15 16 16 17 17 18 22 23 23 24 25 25 26 27 28 28 26 26 26 27 26 25 24 25 25 25 27 27 27 27 27 29 30 30 31 33 32 29 26 24 24 25 27 28 28
15 20 21 23 24 22 22 22 23 25 25 25 26 25 25 25 24 25 24 21 18 16 18 20 21 21 21 18 16 16 15 16 15 14 15 13 11 11 11 12 14 15 16 16 17 18 19 19 22 24 23 24 25 26 26 26 27 27 26 25 25 26 25 24 24 25 25 26 27 27 28 28 29 31 30 28 28 26 21 20 21 20 20 23 24 25 26
13 16 19 22 23 23 24 24 24 26 24 22 21 21 22 22 22 23 23 20 16 14 16 17 16 18 23 24 22 19 15 14 13 13 14 14 12 11 10 11 14 16 17 18 20 21 20 22 24 24 23 24 24 25 25 25 26 27 26 25 25 25 25 24 25 25 24 25 26 25 25 27 29 31 30 26 24 22 18 17 19 19 20 21 22 23 25
12 17 20 21 20 18 18 20 23 26 24 23 23 21 22 23 22 19 17 16 15 14 16 18 18 18 20 22 22 20 18 15 15 15 15 15 16 13 9 8 12 16 17 18 20 20 20 23 26 26 25 24 23 23 24 24 25 26 26 25 25 25 25 24 24 23 23 24 24 22 21 23 24 25 26 24 21 19 18 17 17 18 19 21 22 24 26
11 16 19 17 16 15 14 15 20 24 26 26 27 24 23 24 22 18 16 16 17 17 18 21 22 19 18 19 19 19 17 15 17 19 17 16 18 14 6 5 10 13 15 15 17 20 22 24 25 25 24 23 22 22 22 22 23 24 25 25 25 24 24 24 24 23 22 23 22 21 21 22 22 22 23 23 22 19 17 16 17 19 20 22 24 27 27
9 11 13 13 14 13 13 13 17 22 25 28 29 27 26 26 25 24 23 21 19 18 18 20 21 19 18 19 20 20 19 18 19 19 16 16 18 13 7 7 12 14 14 14 16 19 23 24 24 24 24 23 22 22 22 22 22 22 23 23 23 23 23 24 24 24 23 22 21 22 22 20 21 22 22 22 21 20 18 18 19 20 22 23 24 25 24
8 8 10 12 11 11 12 13 14 17 20 24 26 25 25 26 25 24 23 21 20 20 19 19 18 18 19 19 19 20 20 20 21 19 17 17 16 12 10 13 14 15 16 16 17 19 22 24 24 25 24 24 24 23 23 22 21 21 22 23 23 23 23 24 24 24 24 22 21 22 21 19 18 18 19 19 18 17 18 18 17 18 20 21 22 21 20
9 9 10 10 10 13 13 9 7 8 9 12 13 12 15 18 19 21 22 21 21 21 20 18 15 16 17 16 17 21 23 22 22 20 20 20 17 15 14 14 15 17 18 18 19 20 22 24 25 24 24 25 24 24 24 23 22 22 22 22 23 23 23 23 23 23 22 22 21 21 20 18 16 15 15 15 15 15 16 16 16 17 18 20 20 19 20
8 9 10 10 12 13 8 0 5 5 6 7 7 7 10 13 16 18 20 21 21 20 18 18 16 16 15 13 13 16 19 19 19 19 19 19 17 14 13 13 14 17 19 19 21 23 23 23 24 24 25 25 24 23 24 23 23 23 22 22 23 22 22 22 22 22 21 21 20 19 18 17 15 14 13 13 13 13 13 13 14 13 13 14 15 17 21
9 10 10 10 11 8 4 4 3 6 7 7 6 6 11 11 15 19 18 19 22 20 18 18 17 14 12 11 10 12 15 18 18 17 17 17 15 12 12 13 15 17 19 20 21 23 23 23 24 25 25 26 24 23 23 23 22 22 21 22 22 22 22 22 21 21 20 19 18 18 17 17 16 15 14 13 13 12 11 12 12 9 8 10 12 16 19
11 11 10 9 9 5 6 6 2 2 4 4 1 8 9 7 11 15 16 17 21 19 16 15 15 12 10 10 10 12 16 16 14 12 13 13 13 12 12 14 15 17 19 19 19 22 23 24 26 26 26 25 24 22 22 22 21 21 22 22 22 22 22 21 20 19 18 18 18 17 17 17 16 16 15 13 14 12 10 11 10 7 9 11 14 17 18
12 12 11 9 7 4 6 5 2 2 2 4 7 8 3 7 11 13 14 15 15 14 13 13 13 12 10 10 10 9 8 6 7 7 8 8 10 11 11 13 16 17 18 18 18 20 22 23 25 26 25 24 23 22 21 20 20 21 23 23 22 22 21 20 19 18 18 18 18 17 16 16 15 15 14 13 13 12 10 10 10 10 13 15 17 19 18
12 11 10 10 7 3 6 5 4 4 6 7 6 2 3 6 10 11 12 12 10 9 14 14 12 12 12 12 11 7 2 3 5 5 6 7 8 8 10 13 16 16 16 17 18 19 21 22 22 23 25 24 23 22 21 21 22 24 24 23 23 22 21 21 19 18 17 17 16 15 15 15 14 14 13 11 11 11 11 13 13 12 14 16 17 18 16
10 10 11 11 8 6 6 4 5 5 5 4 2 4 4 5 8 10 10 9 8 8 11 11 12 13 12 11 10 8 5 5 5 5 6 7 8 10 11 13 15 15 14 15 18 20 22 22 22 23 25 25 24 23 23 23 24 25 24 24 24 23 21 22 21 19 17 15 13 12 13 14 14 13 11 9 10 11 13 14 14 13 14 15 15 15 15
10 12 11 6 3 7 7 3 2 2 1 4 4 4 4 3 4 6 7 7 7 7 7 6 9 10 9 9 9 7 6 7 6 6 7 7 8 9 11 13 16 17 15 15 18 20 21 22 23 24 24 25 24 23 23 23 23 23 23 22 22 21 20 20 19 19 19 17 13 11 11 11 12 12 11 11 12 14 16 15 14 14 14 14 14 14 14
5 4 2 3 4 6 7 2 2 1 2 2 3 3 2 2 3 3 4 5 6 5 1 3 4 5 6 7 7 8 8 8 9 9 9 9 9 10 11 14 17 18 18 19 21 21 21 22 23 22 23 24 23 21 21 22 22 23 23 22 21 20 19 18 17 18 18 17 14 12 12 11 12 12 13 14 14 15 16 15 13 14 14 13 14 14 13
3 5 6 6 6 7 9 6 1 1 4 4 4 3 2 2 4 5 3 3 3 2 2 5 6 6 7 7 7 9 10 10 11 11 10 10 11 11 12 14 17 20 21 21 21 21 21 21 21 20 21 22 22 20 20 21 22 22 23 22 22 22 21 20 19 18 18 16 14 14 14 13 13 14 14 14 14 15 16 15 13 14 14 13 13 13 12
3 2 3 6 7 8 10 9 5 6 8 7 6 6 5 5 7 6 4 4 3 3 4 6 7 8 9 9 9 9 10 11 13 13 13 12 12 13 14 17 19 21 20 18 19 19 20 21 21 20 20 21 21 21 20 20 21 22 22 21 21 21 21 20 19 18 18 16 15 15 15 14 13 14 13 13 14 14 14 14 13 13 13 13 13 12 11
3 4 6 7 10 10 11 9 7 7 9 10 10 9 8 9 10 9 8 7 6 7 7 8 9 10 11 11 11 11 10 11 12 13 13 13 13 13 15 17 18 19 17 16 18 18 18 20 21 21 20 21 21 21 20 19 20 21 21 20 20 19 19 19 19 18 17 16 15 15 14 12 12 12 12 13 14 13 12 12 13 14 13 13 12 12 12
4 8 9 9 9 11 12 11 10 9 11 13 14 13 12 12 13 14 14 12 11 11 11 11 11 12 12 12 13 13 12 11 11 12 12 13 14 14 16 17 17 17 17 17 18 18 18 18 19 19 20 20 20 20 19 20 20 20 20 20 20 19 18 18 18 17 17 16 15 15 12 11 11 11 9 8 11 11 8 7 9 10 10 9 10 11 11
2 5 7 7 6 7 9 10 12 12 13 15 17 16 15 16 16 16 16 16 16 16 16 15 14 14 14 15 16 15 13 12 12 12 12 12 13 14 16 18 19 19 18 18 19 18 17 17 17 18 17 17 17 17 18 18 19 19 19 19 18 17 17 16 17 17 17 15 15 15 14 13 13 12 8 7 9 10 9 7 7 7 7 5 5 7 8
2 2 4 7 6 8 10 10 11 12 13 16 18 17 17 18 18 18 18 17 17 17 18 18 18 16 16 16 16 16 14 13 13 13 14 13 13 14 16 16 16 17 18 17 17 17 15 15 15 15 15 15 14 15 16 16 17 18 17 16 16 15 15 15 16 16 16 15 15 15 14 14 15 13 10 10 10 11 10 9 9 8 7 7 7 8 8
4 5 2 8 9 10 11 11 11 12 13 15 17 17 18 18 19 19 19 19 18 16 16 18 19 19 18 17 17 16 15 14 14 14 16 17 16 16 17 16 16 16 16 15 15 14 13 13 12 12 13 13 13 14 15 15 16 17 16 15 15 14 15 16 16 15 15 15 15 14 14 14 15 14 12 10 10 9 9 9 8 8 7 8 9 9 8
1 2 4 10 12 11 11 11 13 13 13 14 15 15 16 17 18 18 18 17 16 16 16 17 18 20 20 18 16 15 14 14 15 15 16 17 18 17 17 17 16 15 14 14 13 12 11 11 11 11 12 11 11 12 13 14 15 15 15 15 15 15 16 16 16 15 14 15 14 14 14 14 14 14 13 12 10 9 9 8 7 7 8 8 10 9 8
2 4 7 12 12 8 7 9 11 13 14 14 13 13 14 16 17 16 15 13 13 14 14 13 14 18 20 18 16 15 14 15 17 17 15 14 15 16 17 16 15 14 14 13 13 12 11 11 11 10 11 10 10 11 12 13 15 14 14 14 14 15 16 16 15 14 14 15 15 15 14 14 14 13 13 12 12 12 11 10 8 7 7 8 9 10 10
6 4 8 10 9 7 8 10 10 11 13 13 11 12 13 13 12 12 12 12 13 13 13 12 12 13 15 16 17 16 15 16 16 16 14 14 15 15 16 16 15 14 14 13 12 11 9 9 10 10 10 10 10 12 13 14 14 13 12 12 14 16 16 16 14 14 14 15 15 15 15 15 14 13 12 11 11 12 12 12 11 9 8 7 8 9 11
12 9 4 6 9 10 12 11 10 11 12 10 9 10 11 10 9 10 10 10 10 9 10 11 12 11 10 11 12 11 12 12 12 11 12 13 14 14 13 13 12 12 12 12 10 8 7 7 9 10 10 9 10 12 14 15 14 13 12 13 15 16 15 14 13 13 13 13 13 13 14 14 13 11 11 11 11 12 13 13 12 11 10 9 9 9 9
13 13 12 11 11 12 12 11 11 11 11 10 7 8 10 8 5 7 8 8 8 7 6 8 10 9 8 8 8 8 9 10 10 10 12 14 14 13 13 12 9 8 9 10 8 7 6 6 7 8 8 9 11 13 14 14 14 13 13 14 14 14 14 12 12 12 12 12 12 12 12 12 12 11 11 11 11 12 12 11 10 11 12 11 11 10 10
11 12 13 13 12 11 11 11 11 12 12 10 8 7 8 7 5 5 6 4 4 5 5 5 6 7 7 7 6 6 6 7 8 8 8 10 11 12 12 13 10 5 6 7 7 6 5 5 5 7 8 10 12 14 15 14 14 13 12 12 12 13 13 12 12 12 12 12 12 12 12 11 11 11 11 10 10 10 10 9 10 11 12 12 12 11 11
11 14 14 13 13 13 12 10 10 10 10 10 10 9 8 7 6 6 5 3 2 3 3 3 4 4 3 4 6 5 4 3 3 3 2 3 5 6 6 7 7 3 4 6 5 4 3 5 6 6 7 9 12 13 14 15 14 13 11 11 13 15 16 14 11 11 13 13 13 12 12 11 11 11 10 10 9 8 8 8 9 10 10 11 11 11 13
11 13 14 12 11 12 11 9 9 9 9 9 9 9 8 7 6 5 4 4 4 3 2 3 2 1 1 1 3 3 3 3 4 2 2 2 3 3 2 2 3 4 5 4 3 2 2 4 6 6 4 6 10 13 14 14 14 13 13 12 13 14 14 12 9 9 11 13 13 13 12 11 11 10 9 9 9 8 8 8 9 9 9 10 9 11 15
9 9 10 10 9 10 10 9 8 8 7 7 7 7 6 6 6 5 4 4 4 3 3 3 2 2 1 1 2 3 3 3 3 3 2 3 3 3 2 2 3 4 5 3 1 3 2 3 6 7 5 5 8 10 12 14 14 13 12 12 11 11 10 9 8 9 11 12 13 12 11 11 10 10 9 8 8 7 8 8 8 8 8 7 6 9 15
8 7 6 7 8 8 9 8 7 7 7 6 6 6 6 6 6 5 3 3 4 3 3 3 2 2 2 2 2 1 0 1 1 2 3 3 3 2 2 2 3 4 5 4 2 2 2 2 3 5 6 6 7 7 9 11 12 12 11 11 10 10 10 9 9 10 11 11 12 11 11 10 9 9 9 8 7 7 6 6 6 6 6 5 4 9 14
7 7 7 7 7 7 7 7 7 7 7 7 6 6 6 5 6 5 4 5 6 6 5 5 4 4 5 4 3 3 3 3 3 2 3 3 3 2 1 2 3 4 5 5 4 3 2 2 2 1 2 5 7 6 6 8 8 8 9 9 9 8 8 9 10 10 9 10 11 11 11 10 9 9 9 8 7 6 6 5 5 4 4 4 5 10 13
5 6 6 6 6 6 6 6 6 6 6 6 6 6 6 7 7 7 8 9 10 9 8 8 7 6 5 4 3 4 4 4 3 3 3 3 3 2 2 3 4 4 6 6 6 4 2 1 0 1 1 4 6 5 5 6 7 7 8 8 9 8 8 9 9 9 10 10 10 9 10 11 10 9 8 7 6 6 5 5 4 3 3 4 4 10 13
6 5 5 5 5 5 4 3 3 5 6 6 6 6 7 7 7 8 9 10 9 8 9 9 7 6 5 5 5 6 5 5 5 5 4 4 4 4 5 5 6 6 6 7 7 7 6 4 3 2 3 4 5 6 6 6 7 7 7 8 8 9 10 10 10 11 11 10 9 10 11 11 9 8 7 6 5 5 4 4 5 4 3 4 4 7 10
6 6 5 5 5 4 3 3 3 4 5 6 6 6 6 6 6 8 8 8 8 9 9 9 8 7 6 6 6 7 6 5 6 6 6 5 5 5 6 7 6 6 7 7 8 9 9 7 6 5 6 7 8 8 7 8 7 5 6 7 8 9 11 12 11 11 11 10 10 10 10 9 7 7 6 6 5 5 4 4 5 6 6 5 6 7 7
6 5 5 5 5 3 3 3 4 4 5 5 5 5 5 5 6 7 7 7 8 9 9 9 9 8 7 6 6 6 6 6 6 5 6 6 6 7 8 8 8 8 8 7 8 10 10 9 9 9 9 10 11 10 9 8 6 4 5 7 8 9 11 12 11 11 11 10 9 8 7 6 6 6 6 5 5 5 4 3 4 5 7 7 7 7 7
5 5 5 5 5 5 4 5 5 6 6 6 6 5 5 5 5 6 7 8 8 8 8 9 8 7 6 6 6 6 7 7 7 6 6 6 6 7 8 8 8 8 8 7 8 9 9 9 10 11 11 11 12 11 11 10 8 7 8 9 9 9 10 11 11 11 10 8 7 6 5 6 6 6 6 6 6 6 6 6 5 6 6 6 6 7 7
6 6 6 6 5 5 5 5 6 7 7 7 7 7 6 6 6 6 7 7 8 8 9 9 8 8 7 8 8 8 9 9 10 9 8 6 5 5 5 7 8 9 8 8 7 7 7 7 8 9 9 9 9 9 9 8 8 9 9 9 9 9 9 9 8 7 7 7 6 6 7 8 8 7 7 6 6 6 5 5 6 6 6 5 5 5 6
8 8 7 7 6 6 6 6 7 7 8 8 8 8 8 8 8 8 7 8 8 8 9 9 9 9 8 8 8 9 9 9 10 11 11 10 8 6 5 6 8 9 8 6 6 6 6 8 8 8 7 7 7 7 6 5 5 6 7 7 7 7 8 8 7 7 7 8 9 11 11 10 9 8 7 6 6 6 6 6 7 7 6 6 6 6 7
9 8 7 6 6 6 7 7 7 8 8 9 9 8 8 9 9 8 8 9 9 9 9 9 8 8 8 8 8 8 8 9 9 9 10 12 12 11 9 8 8 9 9 7 5 6 7 8 9 9 8 8 7 5 3 4 5 6 6 7 6 6 7 8 8 9 10 10 10 10 9 9 8 8 7 7 7 7 5 5 5 6 6 6 6 7 8
8 8 7 6 6 7 7 8 8 7 7 8 8 8 8 9 9 9 8 8 9 9 9 9 8 8 8 9 9 8 8 9 9 8 7 8 9 11 10 8 7 8 8 7 6 7 8 8 8 8 8 8 5 3 3 2 5 6 5 5 6 6 7 7 8 9 9 9 8 7 7 7 7 7 6 6 5 4 2 3 4 4 4 4 5 6 7
8 8 8 8 8 8 7 7 6 6 7 8 9 9 8 8 9 9 9 8 8 9 9 9 10 10 9 9 9 8 8 9 10 9 7 6 6 8 8 7 6 7 7 6 5 6 7 7 7 7 7 6 5 4 4 2 3 3 2 3 3 4 5 6 6 6 6 7 6 7 6 5 4 4 4 3 3 2 3 3 2 2 3 4 5 5 6
8 8 8 9 8 7 6 6 6 6 7 8 8 8 7 7 8 8 8 7 7 8 9 10 10 11 11 10 9 8 8 8 9 10 8 7 7 7 7 7 6 6 5 4 4 5 6 6 5 5 6 5 1 2 2 2 2 2 3 3 3 3 4 5 4 4 5 5 5 5 5 5 4 4 4 3 1 1 2 1 2 4 5 5 5 5 5
7 8 8 8 7 6 5 6 7 7 6 6 6 6 7 7 7 7 7 6 5 5 7 9 9 9 8 8 8 9 9 8 7 8 9 7 7 7 6 6 6 5 4 4 5 5 5 5 4 3 4 4 2 3 1 2 3 2 2 3 3 3 4 4 4 4 5 5 5 4 4 3 3 3 3 3 2 3 3 3 4 5 5 5 5 6 7
6 7 7 7 6 5 5 6 7 6 5 6 6 6 5 5 4 5 6 5 2 1 5 7 7 6 4 4 6 10 10 9 7 8 9 8 6 6 6 5 6 6 5 4 2 1 2 4 4 5 5 5 4 4 2 2 3 2 2 3 3 3 3 4 5 5 5 5 5 4 4 4 4 4 4 5 7 7 6 7 8 8 7 7 7 6 5
5 6 6 7 7 7 6 6 6 5 5 6 6 6 5 4 4 5 6 6 5 4 4 6 6 5 4 4 8 11 9 7 6 7 8 8 8 6 4 3 4 4 5 5 3 2 4 5 6 7 8 7 6 6 5 4 4 3 3 3 3 4 4 3 3 3 4 5 5 5 6 7 7 7 7 7 8 8 8 10 10 8 6 7 7 7 8
5 5 6 7 7 8 8 7 6 6 7 6 6 7 8 7 5 6 7 8 9 9 8 8 7 7 7 8 9 10 9 9 10 10 9 8 8 8 7 6 4 3 5 7 7 4 6 7 7 9 10 9 8 7 7 7 6 5 5 5 5 5 5 4 2 2 4 5 7 8 8 8 8 8 9 9 8 8 9 11 10 7 6 8 10 11 11
6 6 6 6 7 7 8 8 7 7 7 7 7 7 8 7 6 5 5 7 8 8 7 7 7 8 8 9 9 9 9 10 11 11 11 10 10 10 9 9 7 6 6 7 8 6 5 6 8 9 10 10 10 8 8 9 8 8 7 7 8 8 7 7 6 6 7 8 9 11 11 9 9 10 11 11 10 9 10 11 12 11 11 12 12 11 9
9 9 8 7 6 7 8 9 8 7 6 7 7 7 7 7 7 6 6 7 8 7 7 7 8 8 8 9 9 9 9 10 10 10 10 10 11 11 11 11 10 8 7 7 9 9 7 7 7 9 9 10 10 9 9 10 11 10 10 9 9 9 9 9 9 9 10 11 11 11 11 11 11 12 13 13 12 11 11 11 11 12 12 12 11 11 10
Wind_Direction
226 239 241 232 224 229 235 226 216 220 227 228 229 229 228 228 234 239 229 224 228 235 242 243 240 233 220 208 220 237 234 228 237 235 206 192 190 186 188 192 194 196 193 186 185 186 186 187 188 191 193 195 196 195 195 197 199 200 197 193 194 197 195 193 191 191 191 190 190 192 197 201 203 202 203 206 206 209 215 217 213 212 209 202 200 198 193
221 229 238 241 239 235 236 234 227 222 224 227 233 237 235 231 235 242 240 233 230 230 235 239 242 248 243 220 211 223 229 229 233 236 228 219 210 202 195 191 191 191 189 186 184 185 188 188 189 190 191 191 192 192 192 194 197 200 196 189 189 193 192 190 188 185 186 188 189 192 197 201 204 204 203 205 208 211 215 216 213 212 210 205 201 197 193
232 228 230 235 240 241 238 235 231 230 228 226 227 233 236 237 237 238 240 241 238 234 235 235 235 241 248 241 225 216 219 225 228 234 241 240 229 221 215 200 190 187 187 187 184 186 189 190 190 189 188 188 189 191 192 191 192 195 193 186 186 188 188 186 182 182 184 184 184 191 198 200 204 209 208 211 216 216 214 213 213 213 212 209 207 202 198
239 234 235 235 237 241 245 242 236 234 234 231 230 229 230 235 238 238 238 240 239 235 237 237 231 233 241 245 242 237 230 227 225 230 244 255 252 244 235 210 190 185 188 190 188 188 189 189 189 188 185 185 187 190 190 188 187 189 187 183 181 182 181 180 178 181 183 179 179 188 196 198 206 212 213 215 219 217 215 214 213 214 215 213 209 208 210
234 229 233 238 238 240 243 242 239 238 237 234 234 232 228 230 234 237 238 240 241 238 239 240 232 226 233 241 243 244 242 243 242 236 236 248 253 253 250 225 198 189 191 195 191 188 188 188 188 187 183 182 185 187 185 184 184 184 182 178 176 177 178 177 177 177 176 175 178 185 192 199 207 210 211 215 218 217 215 214 212 213 216 217 214 214 219
232 227 228 235 237 235 236 235 238 243 244 243 241 236 229 228 232 236 237 240 243 237 234 240 238 230 228 234 242 244 240 243 248 240 229 236 248 249 241 233 227 210 199 197 192 188 188 188 186 184 181 179 181 182 182 181 181 182 180 175 173 174 176 177 176 173 172 174 180 188 196 204 210 211 214 219 221 222 220 218 218 220 222 225 223 219 218
232 228 226 230 230 233 239 236 235 239 243 248 253 252 241 232 232 237 237 234 237 237 232 235 240 239 235 236 241 244 239 237 240 235 225 229 241 240 204 202 229 222 202 194 190 187 187 186 182 180 179 176 176 178 180 179 179 179 176 172 171 173 177 179 177 175 177 177 181 192 200 204 209 214 218 222 224 226 226 226 227 227 228 230 226 220 217
227 222 220 226 235 244 246 243 241 240 239 243 250 255 251 239 231 235 240 237 232 234 236 235 233 234 235 238 242 241 238 239 239 234 228 225 227 226 209 204 210 206 196 193 189 184 182 181 178 178 177 174 172 174 175 175 175 174 171 171 173 174 179 181 176 176 181 181 184 193 199 202 209 215 218 222 224 224 226 230 229 223 223 226 224 217 212
221 228 228 231 247 248 239 242 258 260 259 257 257 264 270 265 249 236 239 244 239 232 232 234 233 231 229 232 238 235 231 234 237 235 231 227 222 218 214 207 198 191 188 187 182 179 179 178 176 175 174 171 168 169 169 169 169 168 166 170 173 173 177 178 171 171 179 184 186 192 196 201 210 215 218 221 223 223 225 230 229 222 218 219 218 213 205
217 231 234 232 239 239 227 298 8 350 326 325 332 311 287 290 283 255 237 241 248 244 234 228 228 232 232 231 232 229 226 229 232 231 230 231 228 219 207 199 190 181 179 179 177 175 177 177 175 171 169 166 164 165 166 166 168 168 167 169 170 170 173 173 168 169 177 182 185 189 195 201 208 214 219 223 225 227 228 230 233 234 223 210 202 198 198
217 226 232 231 235 229 165 101 25 343 337 5 12 295 261 268 282 273 253 241 242 244 243 236 228 226 231 234 233 232 233 232 227 226 227 227 225 215 198 192 184 173 173 174 172 174 177 175 171 167 166 164 162 164 165 166 168 167 165 166 166 166 167 166 165 168 173 178 183 187 192 198 205 211 216 222 225 225 227 230 237 244 229 202 184 183 188
218 223 230 235 242 225 142 128 127 305 326 0 261 241 252 279 291 291 287 265 245 236 239 243 238 230 227 234 247 255 249 233 214 212 221 218 213 205 196 189 178 169 170 171 171 176 177 170 166 166 166 162 157 159 162 162 163 162 161 161 160 160 160 158 159 163 168 176 184 187 190 195 203 209 210 215 219 218 219 222 220 215 203 188 176 173 175
214 220 229 237 247 214 144 143 182 231 256 258 234 228 274 335 319 319 320 299 270 249 243 242 241 238 230 231 250 274 268 222 181 184 199 194 194 197 189 174 164 162 166 170 175 176 171 168 168 166 161 154 150 153 156 155 153 153 153 152 151 150 151 152 155 162 169 177 182 185 188 192 197 204 205 205 206 206 198 185 177 183 188 179 169 165 163
217 219 226 236 242 185 141 165 209 223 237 242 242 267 354 328 316 322 324 317 307 277 256 250 247 242 234 232 241 255 247 160 162 173 171 165 172 170 150 143 149 156 162 168 174 171 166 167 167 158 149 144 143 146 147 144 144 144 142 142 143 144 147 151 156 163 167 173 179 182 185 186 184 188 194 192 190 190 181 167 164 173 179 175 172 171 171
219 220 221 233 234 179 153 187 204 206 241 271 350 352 322 316 327 328 320 316 314 282 261 258 253 243 231 224 229 228 197 162 160 167 167 161 152 138 130 137 150 157 158 161 162 159 155 156 153 147 142 137 136 139 138 136 137 137 135 137 140 143 148 153 156 157 156 160 172 180 181 178 172 170 174 176 176 178 173 165 166 171 172 173 178 180 185
217 223 221 227 204 159 165 209 237 180 272 337 339 304 299 327 335 324 324 324 309 286 267 248 237 229 208 190 194 189 160 141 139 138 140 140 140 145 150 153 152 150 147 147 146 145 145 145 144 142 137 129 126 128 128 129 130 130 130 133 136 140 144 147 148 150 148 151 162 172 169 166 164 163 165 171 177 176 171 167 170 173 172 176 182 186 192
223 228 188 116 101 133 149 142 350 94 96 356 297 277 301 6 13 348 340 326 302 284 246 157 176 183 171 166 162 139 123 126 128 129 135 142 146 152 151 146 145 145 143 141 140 139 137 136 135 132 126 120 117 117 121 125 126 125 127 131 134 137 139 142 145 146 142 141 151 162 163 163 164 163 164 169 172 170 170 171 173 172 172 178 186 191 194
80 61 77 102 107 116 124 125 146 122 99 71 42 41 44 53 52 41 15 337 297 260 154 127 134 142 141 137 125 108 104 109 112 116 125 132 135 138 136 136 138 138 135 133 130 126 122 120 120 121 121 120 118 118 122 126 127 129 131 132 135 137 140 144 148 146 142 141 146 153 155 158 162 163 165 166 165 166 173 178 179 176 174 179 187 189 185
153 115 102 100 94 100 112 115 106 85 88 94 83 64 57 66 70 62 45 45 55 70 89 102 113 116 110 107 106 102 98 99 98 97 99 104 113 123 127 129 130 128 124 123 120 117 116 117 117 118 119 120 121 124 127 129 130 132 132 131 134 137 139 142 143 142 143 144 145 149 152 155 161 164 163 161 161 169 178 179 178 180 179 179 185 185 176
158 128 123 103 84 78 81 86 87 81 83 93 96 88 77 74 76 72 62 58 63 70 77 91 102 104 104 105 103 99 94 92 89 86 86 89 93 98 104 111 117 117 113 111 110 109 110 113 116 118 119 122 127 130 132 130 130 130 131 131 134 135 136 139 140 141 145 146 148 153 156 154 156 159 160 162 165 172 179 178 178 184 184 182 186 186 180
121 125 142 137 109 90 78 70 68 72 76 75 75 77 80 76 72 69 66 62 60 60 64 72 78 80 82 83 81 79 73 68 72 75 78 78 76 75 76 80 85 90 93 95 95 95 96 101 108 113 118 124 129 131 131 131 132 132 133 134 135 134 136 139 139 142 149 152 154 156 150 137 134 138 148 162 162 157 158 164 171 178 180 181 189 191 184
142 145 155 151 129 111 99 79 67 71 76 74 67 62 60 58 56 57 59 56 52 49 48 51 57 60 60 60 63 65 60 54 56 62 67 72 74 71 70 70 71 74 78 81 83 86 90 95 102 108 115 123 128 128 129 133 135 135 136 138 138 138 141 141 143 150 158 160 159 159 153 142 136 130 121 127 138 140 142 140 143 158 165 160 169 177 170
278 257 132 117 102 102 101 83 66 64 68 70 67 58 51 48 45 45 47 44 41 39 36 35 39 44 48 52 55 57 55 51 53 57 60 64 68 68 66 67 69 71 74 77 80 83 87 93 99 106 115 121 123 122 125 131 134 135 138 139 139 140 142 143 149 158 163 160 159 161 159 156 154 147 129 117 120 130 140 139 134 141 148 144 150 160 157
301 298 85 107 103 98 93 78 62 55 55 61 62 54 48 47 42 39 39 36 32 31 28 25 27 30 34 41 47 48 48 47 49 54 57 58 60 63 63 61 63 67 69 72 76 80 84 90 96 106 112 115 118 122 126 130 134 138 141 142 144 149 149 149 156 163 160 158 160 160 158 160 165 164 155 141 129 127 137 146 149 152 155 155 159 164 161
292 328 62 94 97 94 90 81 68 54 47 52 56 50 45 46 45 41 38 33 28 27 23 17 14 16 19 26 32 37 40 40 40 45 52 55 55 56 56 55 55 59 63 66 70 75 82 89 96 104 110 113 119 126 133 138 140 145 152 156 157 155 149 150 157 159 155 157 158 155 156 161 165 166 169 168 158 142 135 142 154 164 168 169 170 172 173
130 143 111 100 99 98 89 76 67 61 56 56 57 53 46 44 46 46 43 38 34 32 28 21 14 13 14 12 12 17 23 27 31 36 41 46 47 47 47 46 47 51 57 60 62 69 80 91 99 107 116 124 129 134 141 146 148 154 162 164 159 153 150 153 157 155 155 161 160 154 158 165 166 169 175 175 166 157 150 146 147 150 158 172 183 189 192
45 119 138 130 121 101 81 75 77 79 75 69 67 65 56 46 45 49 49 45 39 33 29 26 25 26 23 11 2 4 11 17 23 29 30 32 36 37 36 37 40 45 51 53 54 59 74 92 104 113 120 127 135 144 149 150 150 153 155 150 146 145 148 153 156 154 158 165 165 159 161 167 171 175 176 170 164 164 162 159 154 146 140 154 173 185 190
33 34 66 114 110 94 89 94 101 99 92 88 86 81 71 56 45 47 49 45 42 38 28 22 25 34 34 16 1 1 11 17 20 23 23 23 25 27 28 31 37 45 51 55 58 57 65 86 103 112 118 129 145 154 151 147 144 144 144 143 144 145 149 155 160 158 158 163 166 163 162 165 169 170 166 162 161 161 161 160 155 142 130 132 143 153 165
43 40 42 60 84 103 114 114 109 106 110 119 123 104 91 84 68 54 48 35 31 37 34 25 26 28 25 18 9 5 11 17 16 15 14 10 8 12 15 14 22 44 58 61 66 69 72 83 101 115 130 149 160 158 151 145 142 147 153 154 152 150 150 151 152 154 156 159 160 158 158 161 163 161 160 161 159 157 161 167 159 141 131 134 137 136 139
54 51 47 46 57 77 95 95 87 87 94 102 105 102 100 106 105 86 75 52 23 23 24 28 31 24 12 6 3 2 11 14 7 5 8 5 4 7 6 357 355 28 66 58 57 71 89 106 123 138 154 166 166 161 156 148 144 150 156 150 142 144 145 141 142 150 154 152 148 148 153 159 159 158 158 159 158 157 163 170 164 147 140 146 152 149 146
59 53 49 47 47 51 55 58 59 62 69 76 78 79 80 82 81 80 86 95 75 44 34 39 46 43 20 345 333 340 357 351 328 329 2 20 20 22 9 348 340 5 69 63 55 72 117 151 156 157 172 178 170 165 161 154 149 151 148 129 118 124 130 132 140 152 154 150 150 153 157 158 157 158 158 157 160 165 165 165 167 161 153 158 166 162 156
66 56 43 39 45 48 46 43 45 49 56 65 70 69 68 70 72 70 70 76 70 56 58 64 53 65 166 244 276 279 265 242 221 189 129 59 35 30 25 4 4 31 62 74 85 110 158 176 167 157 170 184 175 171 169 164 159 157 150 137 128 129 135 143 155 156 151 153 158 162 164 162 160 162 163 160 165 171 166 163 170 171 168 172 174 164 161
62 60 39 25 27 35 39 40 39 41 48 58 67 73 72 70 72 66 56 63 68 57 59 60 19 328 305 265 255 246 247 238 199 151 91 49 35 19 16 40 53 57 60 64 150 173 184 194 172 157 155 171 176 176 177 175 174 170 159 148 141 139 144 154 157 150 151 160 164 163 164 162 159 158 157 155 160 166 164 164 170 172 176 184 176 163 170
49 59 51 37 27 23 26 31 31 36 42 46 57 68 69 69 75 72 53 56 69 67 65 66 35 2 14 3 326 302 329 23 65 60 35 31 32 21 31 70 79 78 70 52 54 128 110 89 137 157 170 181 182 181 183 187 189 184 170 159 153 147 146 153 161 164 167 165 156 151 152 153 151 149 148 151 156 156 156 163 166 167 178 184 152 152 174
39 47 48 44 33 22 18 18 16 25 38 41 44 54 58 58 63 62 49 43 41 34 37 46 37 32 40 31 6 16 45 53 53 47 36 37 33 21 46 91 94 90 82 63 50 67 92 77 62 67 197 195 192 191 189 190 187 174 164 166 165 153 148 160 170 170 160 149 145 148 152 150 143 137 137 143 150 150 153 162 161 167 199 204 146 143 165
39 42 40 37 34 31 30 25 17 23 38 43 40 46 51 47 40 36 37 37 29 21 22 29 29 32 42 43 38 43 48 52 59 57 48 48 48 42 56 79 85 90 85 72 61 62 72 79 1 342 274 189 183 177 167 167 162 155 158 170 170 160 158 165 163 152 145 148 149 141 132 128 127 130 138 151 160 161 165 169 164 178 234 235 171 146 159
62 57 49 45 45 42 42 45 42 42 47 49 43 42 45 43 38 39 44 42 35 29 31 35 36 37 35 36 51 61 58 57 65 62 48 45 56 67 74 73 74 81 81 73 67 65 62 69 106 125 122 129 127 118 118 129 137 145 157 169 173 169 165 162 155 148 148 150 139 124 122 129 137 144 154 165 170 178 191 191 184 190 221 232 197 166 164
72 71 69 68 64 50 38 48 62 63 63 66 63 54 48 46 46 48 49 46 41 42 48 52 55 53 44 41 50 58 58 62 70 69 60 57 66 78 78 72 70 76 74 69 70 71 66 70 89 101 107 109 103 98 113 132 140 150 161 165 167 165 159 154 149 145 141 137 134 137 149 159 160 161 171 178 180 190 206 208 198 195 197 205 212 207 201
79 83 89 92 95 95 84 78 80 79 83 89 85 71 62 62 62 59 56 51 45 44 50 58 63 65 65 66 67 62 54 51 54 59 61 62 71 83 86 79 72 70 68 68 73 70 63 69 86 94 101 108 104 95 105 126 134 137 142 144 145 150 151 148 141 134 130 133 141 153 164 171 172 178 184 177 168 173 180 178 195 213 217 216 214 210 211
91 97 101 103 111 118 115 103 91 80 76 75 71 61 54 57 60 59 56 51 44 41 48 57 63 66 68 69 70 69 62 51 43 45 57 66 75 84 86 80 71 64 61 65 72 67 58 68 88 95 98 106 107 100 99 108 111 110 118 126 129 132 135 134 132 129 130 135 141 152 168 182 190 191 181 168 173 189 190 181 188 212 230 235 224 205 201
85 83 83 86 88 87 86 84 82 77 71 66 61 54 47 47 52 52 52 51 46 44 45 49 52 54 58 61 63 64 62 59 57 57 60 67 76 81 76 66 59 54 52 58 69 71 66 72 88 97 100 106 110 109 109 115 121 125 127 132 135 136 135 134 138 145 150 150 158 177 191 193 193 192 188 189 203 215 210 200 203 212 225 242 244 232 224
87 80 76 74 74 75 73 71 73 75 72 67 62 56 48 46 49 50 50 50 50 49 49 50 47 45 45 52 59 61 58 56 60 63 63 63 65 68 71 69 61 51 44 51 68 74 71 74 81 86 91 104 116 121 124 130 135 139 143 146 152 158 159 158 164 177 182 181 188 196 197 193 192 192 191 200 216 218 210 213 221 226 231 239 243 244 245
90 88 87 86 87 88 85 80 78 77 72 67 65 62 55 50 48 48 47 47 45 44 45 49 51 50 45 42 45 52 54 51 53 60 66 66 64 61 64 70 66 50 37 38 61 73 69 69 75 80 91 109 119 128 158 163 148 143 148 153 157 168 172 170 174 183 187 189 194 194 189 193 203 202 197 206 220 220 215 224 237 245 251 254 251 251 251
86 87 87 86 85 86 87 86 85 87 84 77 70 65 60 56 52 48 47 50 50 47 42 39 39 44 50 51 45 38 38 40 40 42 55 67 67 61 56 57 59 49 34 28 47 70 71 73 84 96 108 115 100 34 330 204 152 143 150 160 165 169 171 172 180 187 186 187 191 189 188 203 220 219 210 214 224 227 232 245 245 243 250 261 264 263 262
79 77 77 76 73 71 74 79 84 90 94 88 76 64 59 59 58 53 50 53 57 56 52 45 36 30 36 52 59 51 42 43 41 36 36 50 57 49 41 37 42 47 42 35 47 69 78 86 100 111 116 111 81 35 16 49 108 123 151 170 174 172 169 175 187 193 192 192 194 191 190 201 213 206 192 195 207 213 212 214 224 253 268 268 265 265 267
79 74 70 71 69 68 73 83 83 78 79 80 74 64 54 52 53 54 51 51 58 64 62 55 46 36 31 38 47 49 50 55 55 48 45 52 54 44 35 32 37 42 41 33 39 68 97 115 122 122 120 115 76 348 14 96 114 135 151 151 151 154 161 166 172 174 177 183 186 179 176 182 186 179 167 158 170 234 249 258 282 280 273 267 268 274 278
78 75 70 69 70 72 79 83 78 68 60 58 58 56 54 50 48 49 47 43 54 79 80 66 52 44 38 35 39 40 36 40 51 51 46 47 56 56 44 34 26 18 9 12 25 54 106 137 153 158 153 160 231 290 294 147 156 166 154 153 165 172 166 162 164 170 172 169 162 157 161 177 193 185 167 166 205 235 236 235 245 255 262 268 270 268 267
66 72 74 76 79 81 86 88 84 72 60 52 43 39 47 59 60 56 51 39 16 131 113 90 71 56 43 46 56 49 33 16 19 30 23 15 24 43 44 34 21 1 341 341 9 58 171 190 198 201 198 206 237 259 244 192 183 185 178 179 187 195 187 177 181 189 185 172 168 177 193 204 210 208 209 224 237 242 244 250 259 265 268 266 262 264 271
67 63 64 67 62 49 47 64 70 55 46 55 51 26 8 15 42 50 43 22 353 355 59 78 77 69 58 55 61 59 46 21 13 20 11 359 1 6 3 18 40 16 336 319 302 241 227 235 235 224 216 222 240 251 244 229 213 213 221 219 209 207 210 207 206 207 196 184 187 202 214 220 226 232 239 250 260 267 268 267 269 275 275 263 263 283 296
63 49 46 51 50 38 32 39 41 23 11 19 30 17 3 4 25 40 28 4 355 7 27 33 29 28 32 32 35 39 34 20 14 15 9 0 357 351 339 335 346 340 316 313 307 267 213 213 227 230 227 231 242 250 252 250 239 226 225 234 236 226 211 194 196 244 244 229 226 233 237 241 248 254 258 264 270 273 269 265 268 282 293 278 265 267 275
46 36 35 41 47 44 37 32 30 20 5 357 2 9 5 356 358 22 25 3 350 358 14 11 1 5 15 16 13 9 7 5 6 5 1 357 353 347 335 325 310 281 262 280 294 282 231 209 218 223 227 237 246 248 250 256 254 241 228 229 238 241 226 200 195 219 240 243 248 257 263 261 258 257 257 258 258 258 262 266 267 268 271 268 260 254 256
41 30 24 26 39 47 42 29 20 18 17 8 4 8 4 347 337 349 12 7 350 346 354 355 347 348 1 8 0 350 345 346 347 345 344 346 345 339 331 325 320 309 291 282 283 280 267 250 239 227 225 236 248 249 245 245 247 249 247 242 239 244 243 228 217 222 228 226 229 244 257 259 257 257 258 258 257 254 256 261 264 263 263 264 262 256 253
Height
655 650 646 642 645 650 646 643 649 653 652 653 656 657 654 657 673 677 663 663 672 666 656 649 642 639 641 643 645 645 642 640 640 641 644 647 650 653 655 656 657 657 659 660 661 663 664 667 670 672 675 677 679 682 685 688 691 695 698 703 707 712 716 720 725 728 732 735 737 739 741 743 744 745 747 749 750 750 752 755 757 759 760 762 763 766 768
654 651 650 645 643 647 646 642 643 647 649 650 651 651 647 649 658 657 653 658 661 654 649 644 635 632 632 632 636 639 639 640 639 640 640 641 644 648 651 653 653 654 656 657 659 662 663 665 667 669 672 674 676 679 682 685 688 691 695 700 704 709 713 717 722 725 728 731 733 736 738 739 741 743 745 747 747 749 751 753 755 757 759 761 762 763 765
657 650 648 648 647 648 648 646 643 641 642 644 647 649 647 649 652 649 649 659 658 645 637 634 631 631 631 631 633 635 636 636 637 639 639 638 638 641 644 648 650 651 654 656 657 659 661 662 663 666 669 671 674 676 679 682 685 688 692 697 701 706 710 714 718 722 725 727 730 733 735 736 738 741 743 745 747 748 750 752 754 756 758 759 760 762 764
668 653 652 652 647 648 653 650 644 641 641 642 642 641 643 647 651 651 654 661 656 641 632 632 632 633 634 634 633 633 632 631 633 638 639 637 637 637 638 643 647 649 651 653 653 654 656 658 660 663 665 668 671 673 675 679 682 686 690 694 700 704 707 712 715 719 722 724 727 730 732 734 736 738 742 744 745 747 748 750 752 754 755 757 758 761 763
671 658 655 652 653 669 672 655 642 639 637 636 635 633 634 636 641 650 655 652 643 634 633 636 635 635 637 636 633 631 630 630 631 633 635 636 634 633 634 639 643 646 646 647 647 648 650 653 656 659 661 665 668 670 673 677 680 683 687 692 697 701 705 709 712 716 720 722 724 727 730 733 736 737 740 742 743 744 746 748 750 751 753 755 756 759 761
670 658 651 656 671 685 670 640 631 634 632 631 630 626 626 627 629 633 636 635 632 631 633 636 634 631 632 631 628 625 625 629 630 627 627 631 630 628 632 636 641 643 643 642 644 645 647 650 653 657 660 662 666 669 672 676 678 682 685 690 695 699 703 707 710 714 718 720 723 726 729 732 735 736 738 740 741 743 745 747 748 749 751 753 754 756 758
665 655 657 679 689 670 641 625 625 626 626 626 626 621 616 617 620 622 623 626 627 627 626 627 627 625 622 622 622 620 618 621 623 621 623 626 626 626 630 634 639 641 641 640 641 642 644 647 650 654 657 660 664 667 670 674 677 681 684 689 694 698 702 705 709 713 717 719 722 725 727 730 732 734 736 737 739 741 743 744 746 747 748 750 752 753 755
663 662 671 686 676 645 627 627 623 620 624 626 630 631 620 608 610 617 619 619 619 620 621 618 618 618 618 618 619 615 613 614 614 615 618 620 621 625 628 631 634 636 636 635 636 638 640 643 646 650 653 656 660 663 667 672 676 680 684 688 693 697 700 703 707 711 714 718 721 723 725 728 730 733 734 736 738 739 741 742 743 744 746 748 749 752 754
662 668 669 665 658 646 638 636 630 627 631 629 634 645 635 612 605 610 614 616 615 613 614 614 612 613 617 623 620 610 607 609 607 608 610 611 615 619 622 624 625 627 629 630 633 636 638 640 643 646 649 653 656 660 665 670 674 678 682 687 691 695 698 701 705 709 713 716 719 722 724 727 730 732 733 735 736 737 739 740 741 742 743 745 747 750 751
658 666 668 664 667 663 648 641 635 629 629 626 629 644 643 623 610 606 608 614 615 610 610 611 611 615 624 632 623 607 602 603 603 604 606 606 608 611 614 618 619 622 625 626 629 633 635 637 640 642 646 650 654 659 663 668 672 676 680 685 689 693 696 700 704 708 712 715 718 721 724 727 729 731 733 734 735 736 737 738 739 740 741 743 745 747 750
658 666 673 669 667 659 645 640 636 629 628 625 631 650 650 628 614 610 606 610 613 610 610 609 610 621 635 637 621 606 602 600 599 604 606 605 606 607 609 613 616 619 622 625 628 631 633 635 638 641 644 648 652 658 662 666 671 674 678 683 687 691 695 699 703 707 710 714 717 720 723 726 729 731 732 734 735 736 736 737 738 740 741 743 745 747 750
658 663 667 660 651 644 636 635 634 631 628 628 647 672 661 631 621 620 614 612 608 604 607 609 611 621 632 632 619 604 598 595 595 601 606 606 606 605 606 609 613 617 621 624 626 628 630 633 635 639 642 645 650 656 661 665 669 673 678 683 687 691 695 698 703 706 709 713 716 718 721 724 727 729 731 732 734 735 736 737 739 741 742 744 746 748 751
655 661 664 656 644 635 630 631 631 628 630 642 663 671 652 633 629 625 619 616 608 601 606 612 613 612 613 614 612 604 598 597 599 602 604 603 603 603 604 607 612 617 621 624 626 627 630 633 635 637 640 644 650 656 660 664 669 673 678 683 686 691 694 698 702 706 709 712 715 716 719 721 724 727 728 730 732 734 736 737 738 740 742 744 747 749 751
648 651 658 659 650 634 626 628 626 627 642 659 658 644 632 631 630 624 620 619 612 608 610 609 607 605 602 604 608 608 606 606 607 606 605 605 605 604 605 609 613 617 620 623 626 628 631 634 636 638 641 645 650 655 660 664 669 674 678 682 685 689 693 697 702 706 710 713 716 717 719 719 721 724 727 728 730 733 734 735 737 740 742 744 747 749 751
645 649 657 665 658 636 624 628 630 633 645 650 639 629 627 627 625 624 623 619 615 613 612 608 606 605 604 606 610 612 611 609 608 608 608 608 609 609 610 613 615 617 620 623 625 628 630 633 637 641 644 646 650 655 660 664 669 673 677 680 684 688 693 696 701 704 708 713 718 721 720 720 720 723 726 728 729 732 734 735 737 740 741 744 747 749 750
641 650 652 649 640 626 621 630 636 635 635 632 629 630 629 625 624 627 625 622 619 615 612 611 611 609 609 612 614 615 613 610 609 611 611 611 613 614 614 615 616 618 621 623 626 630 632 634 639 644 647 648 651 656 661 666 670 674 678 682 686 690 695 698 702 703 704 710 717 721 722 722 722 723 726 728 730 732 734 735 737 738 739 742 745 747 748
630 635 635 630 625 622 622 628 633 632 628 626 626 628 628 627 626 625 626 627 624 617 613 614 614 615 617 618 617 616 614 612 612 613 614 614 615 616 616 617 619 620 623 625 629 632 635 638 642 646 648 650 653 658 663 667 670 674 678 682 686 690 695 701 704 705 705 709 714 718 721 723 724 725 727 729 730 732 733 735 736 736 737 740 742 744 745
632 632 632 630 628 626 625 628 632 629 626 625 625 627 630 629 627 626 628 629 626 620 617 616 618 620 620 619 619 618 616 615 614 615 616 616 616 617 619 621 623 624 627 630 632 635 638 640 643 646 649 652 656 661 665 668 672 675 679 682 685 689 694 699 703 705 706 710 714 716 719 723 725 725 727 728 729 731 732 734 734 734 735 738 740 741 742
645 647 643 637 634 631 629 632 634 629 626 628 628 630 632 630 628 629 630 629 628 625 622 621 623 622 620 622 625 624 623 623 621 619 620 621 620 622 624 626 628 629 631 633 634 635 638 641 643 647 652 655 659 663 667 671 674 677 680 684 687 690 694 698 701 704 708 713 716 716 718 721 723 725 726 727 728 729 730 731 732 733 733 735 737 738 740
644 650 648 640 639 637 633 634 636 632 629 629 629 631 634 633 633 633 632 632 633 632 630 629 628 626 625 628 630 630 631 631 629 628 629 628 627 628 629 630 631 632 633 635 636 637 640 643 646 650 653 657 661 665 669 672 676 679 682 685 688 691 694 697 699 703 708 713 716 716 717 719 721 723 725 726 727 728 728 729 730 731 731 733 735 736 738
644 650 648 643 644 646 643 641 640 636 633 633 633 635 638 638 638 639 639 640 640 639 638 636 634 634 634 632 631 634 636 636 636 635 635 634 634 634 635 636 636 637 638 639 640 642 644 647 649 652 656 659 663 666 669 673 676 679 682 685 688 691 694 696 699 703 708 711 713 715 717 718 720 722 723 724 725 726 727 728 728 729 730 732 734 735 737
654 651 646 644 648 653 652 649 646 642 639 639 641 644 645 645 645 645 647 648 647 646 645 642 641 642 640 636 636 638 641 641 641 639 637 637 638 638 640 642 642 642 643 644 645 647 650 652 654 657 659 662 665 667 670 673 676 679 682 685 687 690 693 696 699 703 706 709 711 714 716 719 721 722 723 724 724 725 727 728 729 730 731 733 734 735 737
661 651 643 643 647 653 655 654 652 648 644 643 647 650 651 651 650 650 652 653 653 652 651 648 647 647 645 642 642 644 646 648 646 643 642 641 641 642 645 646 646 647 648 649 650 652 654 656 658 660 662 664 667 669 672 675 677 680 682 684 687 690 693 696 700 703 705 707 710 713 715 717 720 722 723 725 725 726 728 729 730 732 733 734 735 736 738
660 653 645 643 646 653 657 657 655 652 649 649 652 654 655 656 655 656 657 658 659 659 658 655 654 652 650 648 648 650 652 652 649 648 647 646 646 648 649 650 651 652 652 653 655 656 658 660 661 662 664 667 669 671 674 676 678 680 682 685 687 690 693 697 701 702 704 706 709 711 713 716 718 720 722 724 726 727 729 730 731 732 733 734 736 737 738
657 655 648 645 649 655 657 656 656 656 655 655 658 661 662 662 663 663 665 666 666 665 665 663 662 660 658 656 655 656 657 656 654 652 651 650 651 652 653 655 656 656 656 657 658 659 661 662 663 665 667 669 672 674 675 677 679 681 683 685 687 689 693 698 700 702 704 706 709 711 713 714 716 718 720 721 724 727 729 730 731 732 733 735 736 738 739
651 650 647 649 653 654 654 657 660 662 662 663 666 668 668 669 670 671 672 674 674 673 673 672 670 668 667 666 666 665 663 660 659 656 654 654 654 654 656 659 660 660 661 661 661 662 664 664 665 667 669 671 674 676 677 679 681 683 684 686 687 690 694 698 700 701 703 706 708 711 713 714 715 716 717 719 721 724 727 729 731 732 734 735 736 738 739
650 648 648 651 654 654 656 662 666 667 668 670 672 673 673 674 676 676 677 678 679 679 679 678 676 675 676 676 675 674 670 667 664 662 661 660 659 660 662 663 663 664 664 665 666 667 667 667 668 669 670 673 675 677 679 681 683 685 686 687 689 692 696 698 699 700 703 705 707 708 711 712 713 714 715 717 719 722 724 726 728 731 734 735 736 737 738
655 651 650 651 655 660 664 668 670 670 670 673 675 675 676 678 680 680 681 682 683 684 683 681 680 681 683 684 684 682 678 675 672 670 669 668 667 667 667 668 668 668 668 668 670 672 671 671 671 671 672 675 677 679 682 683 684 686 687 688 691 693 696 697 698 700 702 704 705 707 709 710 712 713 714 716 718 720 722 723 726 729 733 735 736 737 738
665 662 659 658 659 663 666 668 669 669 672 675 677 676 678 682 685 685 686 685 685 686 686 685 684 684 685 686 687 685 683 681 679 677 675 674 673 672 672 672 672 671 671 672 672 673 673 674 674 674 676 678 679 681 683 684 685 687 688 689 691 693 694 696 698 700 702 704 705 707 708 710 711 712 714 715 716 718 720 722 724 728 732 734 736 738 739
675 673 672 671 670 669 669 669 670 671 672 675 677 678 681 685 686 687 688 688 688 688 688 687 686 686 686 687 687 687 685 684 683 682 681 679 678 678 676 675 674 673 673 674 673 673 675 676 677 678 679 679 680 682 683 684 686 688 688 689 690 692 693 696 698 700 702 704 706 707 709 710 711 712 713 714 716 717 719 721 723 727 731 733 735 737 739
681 679 679 680 679 678 678 678 678 677 677 678 679 681 683 685 686 687 688 689 689 690 690 689 689 689 689 689 688 687 686 685 685 686 685 685 684 682 681 679 678 676 675 675 675 676 677 678 679 680 680 679 680 682 683 684 686 687 688 690 691 692 694 697 698 700 701 704 706 707 708 709 710 712 713 714 716 717 718 720 723 726 729 732 734 735 737
682 682 684 684 684 684 684 685 685 685 684 684 684 684 684 685 687 688 688 688 689 690 690 691 691 691 691 690 689 688 688 686 686 686 687 686 685 684 682 682 680 678 676 677 678 679 679 679 679 680 680 680 680 681 683 684 686 687 688 690 692 694 696 697 698 700 701 703 705 706 707 708 710 711 712 714 715 716 718 720 722 725 727 729 731 733 735
686 688 689 689 689 689 689 689 690 689 688 687 686 686 686 686 687 688 687 687 688 689 689 690 690 689 688 688 687 687 686 685 684 684 685 685 684 684 683 682 681 680 680 680 680 680 680 679 679 680 681 681 681 681 683 684 685 687 689 690 692 695 697 698 699 700 701 703 704 705 706 708 709 711 712 714 715 716 718 720 722 724 725 727 729 731 733
689 691 692 692 692 693 693 692 692 691 689 688 687 686 686 686 687 687 687 686 687 688 688 688 688 688 687 687 686 684 684 684 684 684 685 685 684 684 683 682 682 682 682 682 681 681 681 680 680 680 681 681 681 682 683 684 685 687 689 691 693 695 697 698 699 700 701 702 704 705 707 708 709 711 713 714 715 717 718 720 722 723 724 726 729 731 733
689 690 690 691 692 693 693 693 692 691 690 690 689 687 686 686 686 685 685 685 686 686 686 685 686 686 686 686 685 684 683 684 685 685 685 685 684 684 682 682 682 682 683 683 682 682 681 681 680 680 680 681 682 683 684 685 686 688 690 692 693 695 697 698 699 700 701 703 705 707 708 709 710 712 713 715 717 719 720 721 722 723 724 726 728 731 733
691 691 692 692 694 694 694 694 694 692 691 691 690 688 687 686 685 684 685 685 686 686 685 685 685 685 685 685 684 684 684 684 684 684 684 684 683 683 682 682 682 682 682 682 682 682 682 681 681 681 682 682 683 684 685 686 687 689 691 693 694 696 697 698 699 701 704 706 707 708 708 709 711 713 714 716 718 719 720 721 723 724 725 726 727 730 733
694 694 694 694 695 696 695 695 694 693 692 692 691 691 690 688 687 687 687 688 689 688 687 687 687 686 686 685 684 684 685 684 684 684 685 684 684 684 683 683 683 683 682 683 684 684 683 683 683 683 683 683 684 685 687 688 689 690 692 693 694 696 697 698 700 703 705 707 708 709 710 711 713 714 715 716 717 718 719 720 722 724 725 725 727 729 731
696 697 697 697 697 697 696 696 695 694 694 694 694 694 693 691 690 690 690 690 690 690 689 689 689 689 689 688 687 687 686 685 684 685 685 685 685 685 684 685 685 685 684 685 686 685 685 685 684 684 684 685 686 687 688 689 690 691 692 693 694 696 697 699 702 704 706 708 709 710 711 712 713 714 715 716 716 718 718 719 721 723 724 724 726 728 730
698 698 698 698 698 699 698 698 697 697 696 696 696 695 694 693 692 692 692 692 692 691 690 690 690 690 690 690 689 689 688 687 686 686 686 686 686 686 686 687 687 687 687 687 687 687 687 686 686 686 686 687 688 689 689 690 691 692 693 694 695 697 699 701 703 705 707 709 710 711 712 713 714 714 714 715 716 717 718 719 721 722 722 722 723 726 728
698 698 698 698 698 699 698 698 698 698 698 697 696 696 695 695 694 694 694 694 695 694 693 692 692 691 691 690 690 690 690 689 688 688 688 688 688 687 687 688 688 688 688 688 688 688 688 688 687 688 688 689 690 691 692 692 692 693 695 696 698 700 702 703 704 706 707 709 711 712 712 713 713 713 713 715 716 717 717 718 720 721 721 720 721 722 725
699 699 698 698 699 698 698 698 698 699 699 698 698 698 698 697 697 696 696 697 697 696 695 695 694 693 692 691 690 690 690 690 690 689 689 688 688 687 688 689 689 689 689 689 689 689 690 689 689 690 690 691 692 693 694 694 695 696 697 699 700 702 703 704 705 706 707 709 711 712 712 712 713 713 713 714 715 715 716 717 719 720 721 720 720 721 723
701 701 701 701 701 701 701 700 699 699 700 700 700 701 701 700 699 699 698 698 698 697 697 696 696 695 694 693 692 692 691 691 690 691 690 690 690 689 689 690 691 691 691 691 691 691 691 691 691 692 693 694 695 695 696 696 697 697 698 700 701 701 703 704 705 706 707 708 709 710 710 711 711 711 711 713 713 714 715 717 717 718 719 720 721 721 722
702 703 703 704 704 703 703 703 702 702 703 703 703 703 703 702 701 701 700 699 699 699 698 698 697 697 696 695 694 693 693 692 691 691 691 691 692 691 691 692 693 693 692 692 692 692 693 693 694 695 695 696 696 697 696 696 697 697 698 699 700 701 702 703 704 705 706 707 707 708 708 709 709 709 711 712 713 713 714 715 716 717 718 719 720 720 721
703 703 703 704 704 704 704 705 704 705 705 705 705 705 704 703 703 703 702 702 701 701 700 699 698 697 696 696 696 695 694 693 693 692 691 691 692 693 694 694 694 694 694 694 694 694 695 696 697 698 698 698 698 697 696 695 695 696 697 698 699 700 701 702 703 704 704 705 706 707 708 709 709 708 709 711 713 714 715 717 718 718 719 720 720 721 721
704 704 704 705 705 705 705 706 705 705 705 705 705 705 705 704 704 704 703 703 703 702 702 701 700 698 697 697 697 697 697 696 695 695 693 693 694 696 696 697 697 697 697 696 696 697 698 699 699 699 700 700 699 699 698 697 697 697 698 698 699 699 700 701 702 702 703 704 705 706 708 710 710 710 711 713 714 716 717 718 719 719 720 721 721 721 721
707 707 706 706 707 707 707 706 706 705 705 704 705 705 705 704 704 704 704 704 703 703 702 702 702 701 699 698 697 698 697 697 697 697 697 696 697 698 698 699 699 699 699 698 698 698 699 700 700 700 701 701 701 700 700 700 700 700 700 700 701 701 702 702 703 704 705 706 707 708 709 711 711 712 713 715 716 717 718 719 720 720 721 721 721 721 722
708 709 709 709 709 709 708 707 706 706 706 705 705 705 705 705 705 705 704 704 703 703 702 702 702 702 701 700 699 699 698 697 697 697 697 697 698 699 699 699 700 700 700 700 700 700 700 701 701 701 702 702 702 701 701 701 701 701 701 702 702 702 703 703 704 705 706 707 708 710 711 711 712 712 714 715 717 717 718 718 719 719 720 720 721 721 722
710 710 710 710 710 709 708 707 707 707 708 708 707 707 707 707 706 705 704 704 703 701 701 701 702 702 702 700 700 700 701 700 699 699 699 698 697 698 699 700 700 700 700 700 700 701 701 702 702 703 703 703 703 702 701 701 702 702 702 703 703 703 703 704 705 705 706 707 709 710 711 712 712 713 714 714 715 715 715 716 717 717 717 719 720 720 721
711 710 710 710 710 710 709 707 707 708 708 709 709 708 708 706 705 705 705 704 702 700 699 699 700 701 700 699 700 701 703 702 701 701 701 700 699 698 699 699 699 700 701 700 700 701 701 702 702 703 703 703 703 702 701 700 701 702 703 703 703 703 704 704 705 705 706 707 709 710 710 711 711 711 712 712 713 713 714 715 715 715 715 717 718 720 721
712 712 711 711 712 712 712 711 711 711 711 710 709 709 708 707 706 706 706 705 703 702 701 701 701 701 700 701 701 702 703 703 702 702 702 701 700 700 699 699 699 700 701 701 700 700 700 701 702 702 703 703 703 702 701 701 701 701 703 703 703 703 704 704 706 706 707 707 708 708 709 709 709 710 711 712 713 714 715 715 714 714 715 716 717 719 720
714 714 714 714 714 715 715 715 715 715 714 712 711 710 710 708 707 707 707 707 706 704 703 703 703 703 703 703 704 703 703 704 704 703 703 702 702 701 700 700 699 700 700 700 700 699 700 700 701 702 702 702 702 702 702 702 701 700 701 702 703 703 703 704 705 706 707 708 708 708 708 708 709 710 711 711 712 713 714 714 714 714 714 714 714 715 716
716 715 715 715 715 716 716 717 716 716 715 714 713 712 711 710 708 707 707 708 708 707 706 706 705 705 705 706 706 706 706 705 705 704 704 703 703 702 701 700 699 698 699 699 699 698 698 698 699 699 700 701 701 701 701 701 701 700 700 701 701 701 702 702 703 705 706 707 708 708 708 708 709 710 710 710 710 711 712 713 713 713 713 713 712 712 713